Aérodrome :
LOGIN :

S'inscrire | Disclaimer

   EN    FR    IT 

 










Légende :    VFR   VFR Marginal   IFR   IFR Intensif   IFR Très Intensif
Visi : 
Plafond : 
>= 8 km
>= 3000ft
5 à 8 km
1000 à 3000 ft
1500m à 5 km
500 à 1000 ft
800 à 1500m
200 à 500 ft
< 800m
< 200 ft
Symboles :   Orages  Brouillard  Fortes neiges  Fortes précipitations  Vent > 20 kt
SIGMETs :   Divers  Orages  Givrage  Turbulence  Onde Orograph.  Cendres Volcan.






- Altitude de l'aérodrome : 121 ft
- Code IATA : HUY


EGNJ - Humberside

DERNIER METAR :
  • 250520Z AUTO 20007KT 9999 NCD 11/09 Q1034

METARs EXPIRÉS :
  • 250450Z AUTO 20005KT 9999 NCD 09/08 Q1034
  • 250420Z AUTO 20003KT 9999 NCD 08/07 Q1034
  • 250350Z AUTO 18002KT 9999 NCD 07/06 Q1034
  • 250320Z AUTO 18002KT 9999 NCD 08/06 Q1034
  • 250250Z AUTO VRB02KT 9999 NCD 09/07 Q1034

TAF TAF EGNJ
Valide du 25 à 03h jusqu'au 25 à 12h UTC


250154Z 2503/2512 26006KT CAVOK
ATIS : +44 1652 682 020



MET'MAP, la Météo Aéronautique d'un coup d'oeil ! - Copyright ORBIFLY Décembre 2007 - Disclaimer

ORBIFLY MET'MAP TEAM :

Programmation & Développement : Alexandra Zaïnal
Sur une idée originale de : Baudouin d'Aumeries
Assistance à la programmation : Marc-Olivier Méhu
Soutien technique & logistique : Manuel Goepfert

Contact : metmap@orbifly.com




SOURCES & CREDITS :

   NOAA